Flag for Congo Dem.Rep. Weather past 2 weeks in Bukavu, Congo Dem.Rep.

Now
82 °F

Scattered clouds.


Feels Like: 83 °F
Forecast: 51 / 75 °F
Wind: 5 mph from Northeast

Location: Kigali Airport

Current Time: Mar 5, 2015 at 12:57:05 PM

Latest Report: Mar 5, 2015 at 12:30 PM


Visibility: N/A

Pressure: 30.12 "Hg

Humidity: 51%

Dew point: 63 °F

Location of BukavuLocation

Historic Weather in Bukavu — Graph

°F

Bukavu temperature yesterday

Maximum temperature yesterday: 82 °F (at 12:30 PM)
Minimum temperature yesterday: 63 °F (at 5:00 AM)
Average temperature yesterday: 70 °F

Past Weeks' High & Low Weather Summary

 TemperatureHumidityPressure
High86 °F (Feb 22, 12:30 PM)100% (Feb 20, 4:00 AM)30.74 "Hg (Feb 20, 4:00 AM)
Low59 °F (Feb 21, 4:00 AM)43% (Feb 22, 1:00 PM)29.95 "Hg (Feb 19, 4:00 PM)
Average70 °F82%30.08 "Hg
* Reported Feb 18 11:00 AM — Mar 5 11:30 AM, Bukavu, Weather by CustomWeather, © 2015

Note: Actual official high and low records may vary slightly from our data, if they occured in-between our weather recording intervals... More about our weather records

Advertising

Bukavu weather history for previous 24 hours

 ConditionsComfort  
Time TempWeatherWind HumidityBarometerVisibility
11:30 AM
Thu, Mar 5
79 °FScattered clouds.5 mph61%30.12 "HgN/A
11:00 AM77 °FPassing clouds.3 mph61%30.15 "HgN/A
10:30 AM75 °FPassing clouds.6 mph65%30.15 "Hg5 mi
10:00 AM73 °FPassing clouds.3 mph69%30.15 "Hg5 mi
9:30 AM73 °FScattered clouds.No wind69%30.15 "Hg5 mi
9:00 AM72 °FScattered clouds.No wind73%30.15 "Hg4 mi
8:30 AM68 °FScattered clouds.No wind88%30.15 "Hg4 mi
8:00 AM66 °FScattered clouds.No wind94%30.15 "Hg4 mi
7:30 AM63 °FScattered clouds.3 mph100%30.12 "Hg5 mi
7:00 AM61 °FScattered clouds.No wind100%30.12 "Hg4 mi
6:30 AM61 °FPassing clouds.No wind100%30.09 "Hg4 mi
5:30 AM61 °FPassing clouds.No wind100%30.09 "Hg4 mi
5:00 AM61 °FPassing clouds.No wind100%30.07 "Hg5 mi
4:00 AM61 °FPassing clouds.5 mph100%30.07 "HgN/A
3:30 AM61 °FPassing clouds.No wind100%30.07 "HgN/A
3:00 AM61 °FPassing clouds.No wind100%30.07 "HgN/A
2:30 AM61 °FPassing clouds.No wind100%30.07 "HgN/A
2:00 AM63 °FPassing clouds.No wind100%30.07 "HgN/A
10:00 PM
Wed, Mar 4
66 °FPassing clouds.No wind88%30.12 "HgN/A
9:30 PM66 °FPassing clouds.3 mph88%30.09 "HgN/A
9:00 PM66 °FPassing clouds.No wind88%30.09 "HgN/A
8:30 PM66 °FPassing clouds.No wind88%30.09 "HgN/A
8:00 PM68 °FPassing clouds.3 mph78%30.07 "HgN/A
7:30 PM68 °FPassing clouds.5 mph83%30.07 "HgN/A
7:00 PM68 °FPassing clouds.3 mph83%30.04 "HgN/A
6:30 PM70 °FPassing clouds.9 mph78%30.04 "HgN/A
6:00 PM73 °FScattered clouds.9 mph69%30.04 "HgN/A
5:30 PM75 °FScattered clouds.7 mph69%30.01 "HgN/A
5:00 PM75 °FScattered clouds.7 mph69%30.01 "HgN/A
4:30 PM77 °FScattered clouds.7 mph65%30.01 "HgN/A
4:00 PM77 °FScattered clouds.7 mph65%30.01 "HgN/A
3:30 PM77 °FScattered clouds.13 mph65%30.01 "HgN/A
3:00 PM79 °FScattered clouds.6 mph54%30.04 "HgN/A
2:30 PM75 °FScattered clouds.5 mph61%30.04 "HgN/A
2:00 PM75 °FScattered clouds.5 mph61%30.07 "HgN/A
1:30 PM73 °FScattered clouds.8 mph65%30.07 "HgN/A
1:00 PM75 °FScattered clouds.16 mph69%30.09 "HgN/A
12:30 PM82 °FScattered clouds.No wind51%30.09 "HgN/A
12:00 PM81 °FScattered clouds.3 mph62%30.12 "HgN/A
Weather by CustomWeather, © 2015

See weather overviewHow to use our weather pages